Regional Weather Roundup
Issued by NWS

Home | Current Version | Previous Version | Text Only | Print | Product List | Glossary On
Versions: 1 2 3 4 5 6 7 8 9 10 11 12 13 14 15 16 17 18 19 20 21 22 23 24 25 26 27 28 29 30 31 32 33 34 35 36 37 38 39 40 41 42 43 44 45 46 47 48 49 50
837
ASUS44 KJAN 191903
RWRMS

MISSISSIPPI HOURLY WEATHER ROUNDUP
NATIONAL WEATHER SERVICE JACKSON MS
200 PM CDT SUN OCT 19 2014

NOTE: "FAIR: INDICATES FEW OR NO CLOUDS BELOW 12,000 FEET WITH NO
SIGNIFICANT WEATHER AND/OR OBSTRUCTIONS TO VISIBILITY.

MSZ001>002-007>008-010>013-018>021-025>028-034>036-192000-
NORTHWEST MISSISSIPPI

CITY           SKY/WX    TMP DP  RH WIND       PRES   REMARKS
CLARKSDALE     FAIR      66  46  48 N7        30.16F
CLEVELAND      FAIR      67  48  49 N3        30.15F
GREENWOOD      SUNNY     70  47  43 E6        30.14F
GREENVILLE     SUNNY     69  42  37 E6        30.15F
GRENADA          N/A    N/A N/A N/A MISG        N/A
OLIVE BRANCH   MOSUNNY   63  46  55 N5        30.17F
OXFORD         FAIR      64  46  52 NE3       30.17F HAZE
TUNICA         CLEAR     64  45  48 N3        30.17F
$$

MSZ003>006-009-014>017-022>024-029>033-037>039-192000-
NORTHEAST MISSISSIPPI

CITY           SKY/WX    TMP DP  RH WIND       PRES   REMARKS
COLUMBUS AFB   SUNNY     68  45  44 E6        30.13F
CORINTH        FAIR      66  45  45 VRB5        N/A
GOLDN TRIANGLE SUNNY     70  46  43 NE9       30.12F
TUPELO         SUNNY     66  45  46 CALM      30.14F
$$

MSZ040-058-192000-
CENTRAL MISSISSIPPI

CITY           SKY/WX    TMP DP  RH WIND       PRES   REMARKS
JACKSON INTL   SUNNY     71  46  40 VRB3      30.12F
JACKSON HAWKNS SUNNY     70  40  33 N7        30.12F
MERIDIAN KEY   SUNNY     70  43  37 VRB5      30.11F
MERIDIAN NAS   SUNNY     72  47  40 N7        30.11F
RAYMOND        FAIR      72  66  83 E5        30.13F
VICKSBURG      SUNNY     71  47  42 N8        30.13F
$$

MSZ059>079-192000-
SOUTH MISSISSIPPI

CITY           SKY/WX    TMP DP  RH WIND       PRES   REMARKS
BROOKHAVEN     FAIR      70  46  43 NW6       30.12F
COLUMBIA         N/A    N/A N/A N/A MISG        N/A
HATTIESBURG    SUNNY     73  47  39 NE5       30.11F
MCCOMB         SUNNY     72  47  40 N8        30.10F
NATCHEZ        SUNNY     70  50  49 E5        30.12F
PINE BELT      SUNNY     72  45  37 E5        30.12F
$$

MSZ080>082-192000-
COASTAL MISSISSIPPI

CITY           SKY/WX    TMP DP  RH WIND       PRES   REMARKS
BAY ST LOUIS   SUNNY     73  48  40 CALM      30.08F
BILOXI         SUNNY     74  50  41 NW2       30.07F
PASCAGOULA     SUNNY     75  47  36 VRB3      30.07F
GULFPORT       SUNNY     74  49  41 VRB3      30.07F
$$



USA.gov is the U.S. government's official web portal to all federal, state and local government web resources and services.